Wind_Speed
31 32 33 34 40 40 39 45 48 50 58 62 69 70 70 74 77 79 82 77 72 66 64 67 69 70 71 72 73 73 74 78 82 79 78 77 76 76 78 80 82 84 86
34 34 36 34 42 41 47 51 56 60 62 63 65 66 65 64 65 64 62 58 59 60 59 59 61 64 68 71 73 74 75 78 79 77 77 76 78 78 80 84 89 93 97
31 33 35 35 40 43 44 43 49 51 54 56 56 57 57 52 51 52 53 53 52 54 57 62 65 68 71 74 75 76 77 77 77 77 76 76 79 82 87 93 96 103 108
35 35 37 36 38 42 42 40 46 49 49 48 45 45 43 44 44 46 48 52 54 57 61 64 67 71 75 78 79 79 79 79 79 81 86 89 90 91 92 98 102 106 110
23 27 31 34 33 33 34 35 40 40 41 41 40 41 41 42 43 45 49 54 57 61 67 71 76 79 83 82 79 80 80 82 86 90 94 98 100 103 102 99 98 100 104
26 29 30 28 28 28 29 32 34 36 39 40 42 42 44 45 46 50 54 60 63 68 73 77 82 86 86 81 80 83 86 90 96 99 103 104 105 102 98 95 97 101 104
28 32 33 30 27 26 29 33 36 38 41 43 43 45 49 53 56 59 62 67 71 75 79 85 88 86 81 82 86 91 96 99 104 108 110 108 105 103 101 101 101 101 101
35 35 28 25 27 30 30 33 37 41 45 50 52 52 55 56 60 65 67 73 79 80 85 91 88 84 83 86 92 98 102 106 110 110 109 108 107 110 110 108 106 95 87
34 31 28 28 28 31 33 34 38 43 50 53 54 56 58 63 67 70 75 80 81 86 91 90 86 86 88 93 100 103 106 110 109 107 106 108 106 108 112 113 107 96 90
36 28 27 29 31 34 37 39 43 49 53 57 57 58 63 67 72 74 76 81 86 90 92 89 88 88 92 97 104 110 111 109 107 105 108 110 108 109 111 109 105 100 94
30 29 29 32 37 41 43 45 45 48 52 57 59 62 67 70 70 75 80 84 89 94 91 90 90 94 99 103 109 111 111 105 106 108 110 112 112 108 107 105 100 97 93
31 30 32 37 40 43 46 49 49 51 54 61 65 67 66 70 75 80 84 87 94 91 91 92 95 99 103 108 111 110 106 104 106 109 109 110 108 101 101 99 94 90 85
31 33 34 39 44 46 51 53 54 56 61 66 70 66 72 77 82 85 88 95 94 91 92 94 100 104 108 110 108 101 102 105 107 106 109 103 98 94 91 89 86 82 76
34 35 36 40 43 47 51 55 59 62 65 66 70 75 78 83 86 90 94 97 94 94 96 102 106 107 108 105 104 103 105 106 105 98 99 96 93 88 85 83 78 73 69
46 42 42 46 48 51 54 58 60 64 67 71 77 81 85 89 90 95 97 94 96 99 104 107 109 106 103 104 104 105 105 104 102 98 93 90 88 82 79 75 70 67 65
48 53 51 52 56 55 57 62 65 67 71 78 83 87 90 92 97 99 96 98 101 107 109 109 106 104 102 104 106 105 102 96 97 95 91 86 81 77 73 68 66 63 61
51 56 59 59 57 61 66 69 71 74 79 85 89 91 94 99 99 98 100 104 109 111 110 107 104 102 105 106 108 105 100 97 95 91 87 82 78 71 68 65 63 61 57
53 56 62 65 66 69 73 77 77 80 85 89 92 94 98 98 98 101 106 110 112 110 109 106 105 106 105 106 101 100 98 97 92 85 80 78 73 69 66 63 60 56 54
57 61 63 66 72 75 78 81 84 88 91 93 97 97 96 98 101 107 111 113 111 108 107 108 110 110 105 102 101 99 93 89 87 80 77 75 70 66 63 60 58 54 50
63 66 68 71 74 78 83 87 90 92 94 100 97 95 97 102 109 113 113 110 108 110 110 111 112 107 104 99 95 91 85 82 80 77 72 70 65 62 60 57 55 51 48
67 67 71 74 78 83 87 90 91 93 99 97 98 101 105 109 114 116 116 112 111 110 110 110 108 103 98 95 92 87 83 79 74 72 67 66 62 59 56 54 51 48 45
72 74 76 80 84 89 92 92 93 100 101 100 103 107 113 117 118 117 113 114 114 113 112 108 103 99 92 88 84 80 78 75 71 69 65 62 59 56 54 51 49 46 43
77 80 83 86 90 92 92 95 100 102 101 103 106 111 116 118 117 115 112 113 113 113 108 103 98 93 88 81 79 77 75 72 67 65 62 59 56 53 51 49 46 42 40
81 85 89 91 92 93 95 100 103 101 104 105 110 116 118 116 114 110 111 112 114 111 106 100 94 88 83 78 74 73 72 68 65 62 60 57 54 51 48 45 43 41 39
86 89 92 94 95 97 101 104 101 104 107 111 117 119 117 114 112 111 111 110 108 104 100 97 89 83 80 74 71 68 66 64 62 60 55 53 50 47 45 42 40 39 37
88 91 94 96 97 102 104 101 104 109 112 116 120 119 114 111 110 108 108 110 107 101 95 90 85 81 76 71 67 64 61 59 58 55 53 50 47 44 42 39 37 37 36
Wind_Direction
250 242 244 243 247 243 251 259 257 260 265 263 264 267 270 271 274 276 277 281 284 288 288 289 291 294 297 297 297 295 294 293 293 294 295 295 293 291 289 287 286 285 282
244 246 246 246 247 255 253 255 261 265 265 266 267 271 274 275 277 280 283 286 285 288 293 296 298 300 301 299 298 297 296 295 296 297 295 294 295 293 291 289 288 287 285
256 253 253 248 253 258 260 263 265 266 267 268 271 274 276 279 279 280 282 286 291 294 294 300 304 306 307 307 304 301 300 299 298 296 296 293 292 291 291 292 291 291 289
263 266 265 261 260 264 268 264 264 265 269 271 273 271 272 278 284 290 290 291 294 298 303 306 308 308 310 307 304 302 301 298 298 298 297 297 295 292 292 292 291 289 288
279 273 275 274 270 267 267 265 266 268 269 267 269 273 275 278 282 287 292 297 301 304 307 307 307 308 309 307 304 302 302 303 302 302 301 300 300 299 297 295 295 292 291
277 283 287 275 274 273 268 267 268 265 266 270 275 277 280 285 289 294 296 298 301 306 306 307 310 310 308 307 306 306 306 305 305 305 302 302 302 302 300 299 297 295 293
274 285 283 277 272 268 267 268 271 276 281 281 283 287 289 291 291 294 298 303 307 308 310 311 311 309 308 309 309 308 307 307 306 306 307 307 307 305 302 301 298 298 297
261 276 274 271 272 270 270 275 283 288 292 291 291 294 297 299 301 303 305 308 309 309 310 311 310 308 308 309 309 309 308 308 307 308 308 308 308 306 306 304 303 302 301
278 274 273 274 273 275 280 285 291 296 301 302 302 302 301 303 303 304 307 308 308 309 311 311 309 307 307 308 309 309 309 309 309 308 306 306 306 304 303 305 305 306 305
265 271 274 280 285 287 291 297 300 301 302 302 300 298 297 299 302 306 307 308 310 311 310 309 308 306 306 309 309 310 311 310 308 308 308 307 307 306 304 305 306 305 305
260 267 275 286 293 299 300 301 302 301 301 300 300 300 302 303 306 307 308 309 310 312 310 309 307 307 308 308 308 309 310 309 309 308 308 310 308 306 305 305 306 305 304
271 282 290 295 297 298 299 302 302 301 302 302 304 306 305 307 308 308 309 309 312 311 309 309 309 308 307 308 309 310 310 310 311 311 307 304 304 305 305 305 305 303 303
284 291 294 296 299 300 302 303 303 301 301 302 305 308 307 308 309 309 309 311 311 310 309 309 308 308 310 310 310 309 311 312 310 305 304 306 305 306 305 305 304 303 302
287 289 293 296 297 299 301 302 300 301 303 307 309 309 310 311 311 310 310 311 310 309 309 309 311 311 310 309 309 310 311 310 310 305 306 307 308 307 306 304 303 304 303
296 297 298 299 300 299 298 297 301 305 309 311 311 311 312 311 311 310 311 310 310 309 310 312 312 311 311 311 311 311 308 307 309 309 308 307 307 308 307 305 305 305 303
297 301 303 303 304 302 301 302 303 307 310 312 312 311 311 311 311 311 310 311 310 312 313 313 313 313 311 311 309 311 312 309 310 310 309 309 309 308 307 307 307 305 303
303 304 305 306 303 302 303 306 309 309 311 311 312 312 311 311 311 311 311 312 313 314 314 313 312 314 315 315 314 314 314 313 311 312 312 310 309 309 309 308 307 305 303
300 301 304 303 303 306 309 310 311 311 310 311 311 311 311 310 311 312 313 314 314 314 313 314 315 314 314 314 313 313 313 313 312 310 311 310 311 312 310 308 306 305 304
299 301 301 303 306 308 310 310 310 310 311 312 311 311 311 311 312 314 315 316 315 314 316 316 316 315 314 314 315 313 313 312 310 311 313 312 312 311 309 307 306 305 304
301 303 304 305 306 306 308 309 310 312 312 313 311 310 311 313 314 315 316 316 316 318 316 315 315 315 315 314 312 311 312 312 312 313 312 311 311 310 308 307 306 305 304
299 301 302 303 304 306 307 309 310 310 313 311 311 313 313 315 316 317 318 318 317 316 314 314 314 313 314 314 313 313 312 311 313 313 313 311 310 310 308 308 307 306 305
298 301 303 304 306 307 308 309 309 312 312 312 315 316 317 316 317 318 319 318 317 315 314 313 313 314 314 315 314 314 314 313 313 313 313 311 311 310 309 308 308 307 306
298 301 302 304 306 308 308 309 311 312 313 315 316 316 315 316 317 318 318 317 316 315 313 313 315 315 315 315 314 313 314 314 314 314 313 312 310 309 309 308 307 306 306
299 301 303 305 307 307 308 311 311 311 314 315 314 314 317 317 318 317 317 317 318 316 314 314 315 315 315 317 317 315 314 313 313 312 311 311 310 310 309 308 306 308 306
300 301 303 305 306 307 309 310 311 313 314 314 315 316 316 317 318 318 318 316 315 314 315 314 315 316 316 316 315 314 314 313 312 311 311 311 310 309 308 307 307 308 306
300 302 304 305 306 308 309 310 312 313 313 314 315 315 317 317 318 318 319 317 316 315 314 314 315 316 316 316 315 315 314 313 312 313 313 313 311 310 309 307 308 307 306
Height
10668 10670 10673 10676 10672 10673 10674 10674 10673 10673 10668 10664 10661 10659 10656 10651 10647 10640 10636 10632 10623 10619 10612 10603 10596 10588 10580 10572 10565 10556 10549 10539 10532 10529 10519 10510 10504 10496 10485 10477 10468 10461 10455
10660 10661 10662 10666 10660 10662 10664 10663 10660 10657 10657 10654 10651 10648 10643 10639 10635 10627 10622 10618 10610 10606 10599 10592 10585 10578 10568 10558 10550 10542 10534 10524 10514 10508 10502 10495 10482 10475 10467 10455 10442 10435 10425
10652 10652 10652 10657 10654 10654 10654 10654 10649 10646 10645 10643 10641 10636 10633 10627 10621 10617 10612 10606 10601 10595 10588 10579 10570 10561 10551 10540 10530 10521 10513 10505 10495 10486 10481 10475 10465 10457 10447 10435 10424 10407 10392
10644 10646 10645 10648 10649 10645 10644 10644 10640 10637 10635 10632 10631 10627 10624 10617 10612 10605 10600 10593 10588 10580 10572 10564 10556 10547 10536 10525 10513 10502 10493 10485 10476 10466 10454 10444 10438 10431 10427 10413 10400 10384 10367
10637 10639 10636 10636 10635 10635 10634 10632 10631 10631 10628 10624 10622 10618 10615 10609 10605 10598 10590 10582 10574 10567 10558 10549 10539 10529 10518 10508 10498 10485 10474 10464 10454 10443 10431 10420 10409 10395 10387 10380 10367 10350 10331
10630 10630 10630 10628 10626 10625 10625 10624 10624 10622 10619 10616 10611 10608 10602 10596 10590 10584 10577 10570 10562 10554 10544 10533 10522 10510 10498 10487 10476 10462 10453 10443 10429 10419 10404 10393 10379 10365 10353 10345 10335 10323 10304
10625 10625 10623 10622 10622 10622 10622 10618 10615 10612 10608 10604 10601 10596 10589 10582 10576 10569 10561 10552 10543 10535 10524 10512 10501 10488 10477 10465 10454 10439 10427 10417 10403 10389 10372 10357 10344 10330 10318 10308 10298 10289 10275
10618 10620 10617 10615 10615 10614 10614 10613 10608 10602 10595 10589 10585 10581 10574 10568 10560 10551 10544 10535 10525 10516 10506 10493 10481 10469 10457 10446 10433 10417 10404 10390 10374 10359 10344 10329 10315 10296 10283 10268 10258 10252 10241
10611 10612 10611 10609 10609 10608 10606 10603 10598 10591 10584 10576 10571 10566 10559 10552 10545 10538 10529 10519 10508 10498 10487 10474 10462 10450 10437 10425 10410 10396 10382 10365 10348 10334 10320 10304 10290 10272 10254 10237 10222 10213 10210
10610 10608 10606 10603 10599 10597 10595 10593 10590 10581 10573 10566 10560 10553 10546 10538 10531 10524 10514 10503 10491 10480 10467 10454 10443 10430 10418 10406 10386 10369 10355 10339 10322 10308 10292 10276 10261 10244 10225 10209 10194 10183 10174
10602 10601 10600 10596 10591 10587 10583 10580 10580 10573 10564 10554 10547 10542 10534 10525 10517 10508 10498 10487 10474 10460 10447 10434 10422 10408 10395 10382 10363 10348 10332 10316 10298 10282 10265 10247 10232 10214 10197 10181 10170 10159 10147
10592 10592 10591 10588 10584 10579 10573 10568 10565 10561 10553 10541 10533 10527 10518 10510 10501 10491 10480 10469 10457 10442 10428 10414 10401 10388 10374 10358 10343 10325 10307 10292 10274 10256 10238 10223 10207 10189 10173 10157 10145 10135 10124
10585 10584 10584 10579 10573 10569 10562 10556 10550 10544 10538 10528 10519 10513 10503 10495 10484 10473 10460 10449 10437 10424 10411 10397 10382 10366 10350 10331 10317 10304 10285 10265 10248 10231 10213 10197 10182 10166 10148 10136 10123 10112 10103
10577 10576 10575 10572 10568 10562 10554 10544 10537 10531 10521 10512 10503 10494 10487 10475 10464 10452 10440 10426 10414 10401 10389 10375 10358 10342 10325 10305 10290 10275 10260 10242 10221 10204 10188 10173 10158 10144 10128 10113 10102 10093 10083
10561 10564 10564 10558 10554 10550 10543 10534 10524 10516 10506 10498 10487 10478 10467 10456 10445 10433 10420 10406 10392 10379 10365 10349 10333 10317 10299 10279 10264 10250 10232 10214 10196 10179 10163 10150 10137 10121 10110 10095 10083 10074 10065
10552 10545 10547 10544 10536 10530 10524 10517 10509 10503 10494 10483 10471 10459 10448 10436 10423 10409 10395 10382 10368 10353 10337 10321 10305 10291 10275 10258 10238 10222 10204 10187 10170 10154 10140 10127 10113 10102 10088 10075 10064 10057 10049
10542 10533 10525 10526 10522 10512 10506 10500 10494 10485 10476 10463 10453 10440 10427 10412 10399 10385 10371 10357 10342 10326 10310 10295 10281 10266 10247 10229 10209 10193 10179 10161 10143 10130 10116 10103 10091 10081 10067 10058 10048 10039 10032
10534 10527 10516 10502 10500 10497 10489 10481 10475 10468 10458 10446 10434 10421 10406 10391 10378 10364 10350 10334 10318 10301 10285 10266 10251 10237 10222 10203 10185 10167 10152 10137 10120 10109 10096 10083 10071 10060 10048 10040 10033 10025 10016
10522 10515 10506 10497 10487 10479 10471 10462 10455 10446 10435 10423 10411 10398 10384 10371 10357 10343 10325 10308 10292 10275 10258 10240 10223 10207 10195 10178 10159 10144 10131 10115 10100 10088 10076 10063 10054 10043 10033 10024 10016 10010 10002
10505 10498 10491 10484 10476 10466 10457 10447 10436 10425 10413 10402 10389 10377 10365 10350 10334 10317 10300 10284 10267 10250 10233 10215 10198 10182 10168 10153 10137 10122 10110 10094 10081 10069 10059 10046 10038 10028 10019 10010 10002 9995 9988
10490 10487 10478 10470 10461 10453 10443 10432 10421 10409 10397 10383 10368 10354 10341 10326 10308 10289 10271 10256 10241 10227 10210 10194 10175 10158 10143 10128 10110 10096 10085 10073 10061 10050 10040 10029 10021 10013 10004 9996 9988 9981 9975
10473 10468 10462 10454 10444 10433 10423 10413 10401 10387 10372 10359 10345 10328 10313 10298 10282 10266 10250 10233 10216 10201 10184 10168 10152 10136 10123 10109 10091 10076 10064 10053 10044 10032 10024 10015 10005 9997 9989 9982 9975 9968 9962
10458 10451 10444 10435 10426 10416 10403 10390 10378 10364 10350 10338 10325 10310 10295 10279 10262 10245 10228 10210 10191 10173 10158 10142 10128 10114 10099 10089 10075 10058 10045 10034 10026 10016 10008 10000 9992 9985 9977 9969 9963 9957 9951
10443 10434 10425 10416 10406 10396 10385 10372 10359 10345 10332 10320 10306 10290 10273 10256 10240 10223 10205 10186 10165 10149 10131 10117 10105 10092 10080 10068 10056 10042 10029 10018 10009 10003 9994 9986 9978 9971 9964 9958 9951 9945 9940
10425 10416 10407 10397 10386 10374 10364 10351 10338 10325 10313 10298 10281 10265 10249 10233 10216 10199 10181 10160 10140 10124 10110 10092 10082 10071 10059 10052 10039 10028 10017 10005 9996 9988 9981 9974 9966 9960 9953 9947 9940 9935 9930
10407 10397 10387 10376 10365 10354 10341 10329 10316 10303 10288 10273 10257 10239 10223 10207 10190 10173 10155 10134 10117 10102 10087 10074 10062 10050 10042 10032 10023 10013 10004 9993 9982 9974 9966 9960 9953 9947 9941 9936 9930 9925 9920